[[{"header":{"parameterUnit":"m.s-1","parameterCategory":1,"la1":30.2991,"la2":30.254,"lo1":-89.0895,"lo2":-89.0444,"dy":0.0017,"dx":0.0017,"nx":28,"ny":28,"refTime":"2023-10-19T09:00:00:Z","depth":0,"parameterNumber":2,"parameterNumberName":"U-component_of_WINDS"},"data":[0,0,0,0,0,0,0,0,0,0,0,0,0,0,0,0,0,0,0,0,0,0,0,0,0,0,0,0,0,0,0,0,0,0,0,0,0,0,0,0,0,0,0,0,0,0,0,0,0,0,0,0,0,0,0,0,0,0,1.7659,1.7659,0,1.7648,1.7648,1.7648,1.7559,1.7557,1.7555,1.7553,1.7543,1.7545,1.7547,0,0,0,0,0,0,0,0,0,0,0,0,0,1.7608,1.7609,1.7659,1.7659,1.7659,1.7648,1.7648,1.7648,1.756,1.7557,1.7555,1.7552,1.7543,1.7545,1.7547,0,0,0,0,0,0,0,0,0,0,0,0,0,1.7617,1.761,1.7659,1.7614,1.761,1.7648,1.7648,1.7648,1.756,1.7557,1.7554,1.7551,1.7542,1.7545,1.7547,1.7629,0,0,1.7555,1.7556,0,0,0,0,0,0,0,0,1.7617,1.7619,1.7621,1.7617,1.7612,1.7602,1.7626,1.7641,1.7561,1.7579,1.7553,1.7549,1.7565,1.7566,1.7571,1.7628,1.7628,1.7555,1.7557,1.7558,1.7559,0,0,0,0,0,0,0,1.7616,1.7619,1.7655,1.7621,1.7616,1.7595,1.7593,1.7629,1.7591,1.7577,1.7571,1.7571,1.7563,1.7569,1.757,1.7628,1.7555,1.7558,1.7559,1.756,1.7755,1.7758,0,0,0,0,0,0,1.7621,1.7619,1.7655,1.7655,1.7606,1.7599,1.7596,1.7609,1.759,1.7584,1.7574,1.7567,1.7566,1.7567,1.757,1.7667,1.7558,1.7561,1.7562,1.7752,1.7756,1.776,0,0,0,0,0,0,1.7621,1.7626,1.7656,1.7635,1.7637,1.7603,1.7618,1.761,1.7616,1.7587,1.758,1.7587,1.7563,1.7566,1.7615,1.7665,1.7562,1.7564,1.7747,1.7753,1.7758,1.786,0,0,0,0,0,0,1.762,1.7626,1.7656,1.7636,1.7639,1.7701,1.7621,1.7612,1.7621,1.7612,1.7598,1.7592,1.7561,1.7612,1.7618,1.7667,1.7566,1.7743,1.775,1.7756,1.7852,1.7868,1.7882,0,0,0,0,0,1.7618,1.7685,1.7658,1.7663,1.7675,1.7704,1.7706,1.7668,1.7625,1.7656,1.7637,1.7593,1.7658,1.7618,1.7624,1.7674,1.7739,1.7748,1.7756,1.7846,1.7865,1.7882,0,0,0,0,0,0,1.7711,1.7681,1.7651,1.7713,1.7712,1.7689,1.7726,1.7689,1.77,1.7692,1.7644,1.7642,1.77,1.7691,1.7647,1.7754,1.7691,1.7701,1.7758,1.7776,1.7791,1.7793,1.7569,0,0,0,0,0,1.7738,1.7764,1.7736,1.7794,1.7795,1.7761,1.7772,1.7743,1.774,1.7739,1.7725,1.7724,1.7745,1.7759,1.7777,1.785,1.7847,1.7888,1.7903,1.7915,1.7925,1.7966,1.7985,1.7786,1.7786,1.7786,0,0,1.7796,1.7783,1.7801,1.7812,1.7808,1.7837,1.7761,1.7794,1.7815,1.7744,1.7791,1.7781,1.7777,1.784,1.7867,1.7835,1.7979,1.7925,1.7936,1.7938,1.7977,1.7995,1.8012,1.7792,1.7791,1.779,0,0,1.7916,1.7907,1.7956,1.7953,1.7948,1.7925,1.7937,1.792,1.7911,1.7956,1.7905,1.793,1.7965,1.7966,1.7971,1.8094,1.8054,1.81,1.8179,1.822,1.8236,1.825,1.8297,1.8314,1.8109,1.811,1.811,0,1.7988,1.8028,1.7985,1.8022,1.803,1.7967,1.8017,1.8016,1.8017,1.8025,1.7988,1.8034,1.8027,1.809,1.8121,1.8125,1.814,1.8103,1.8237,1.825,1.8263,1.8307,1.8324,1.8116,1.8115,1.8114,1.8114,0,1.8119,1.8148,1.8188,1.8191,1.8203,1.8246,1.8211,1.8228,1.8198,1.818,1.823,1.8219,1.8234,1.8247,1.8217,1.8307,1.8288,1.8245,1.8182,1.8288,1.8329,1.8346,1.8124,1.8122,1.812,1.8119,0,0,1.8298,1.8277,1.8293,1.8295,1.8285,1.8307,1.8348,1.8363,1.838,1.8383,1.8418,1.8451,1.8412,1.8418,1.8388,1.8424,1.8526,1.8377,1.8376,1.8408,1.8628,1.8662,1.8682,1.8498,1.8501,1.8504,1.8629,0,1.8416,1.8485,1.8448,1.8523,1.8551,1.8492,1.8529,1.8527,1.8512,1.8534,1.8516,1.8542,1.8487,1.849,1.8523,1.8507,1.857,1.8496,1.8533,1.8535,1.8539,1.8703,1.8739,1.8858,1.8644,1.8647,1.8649,0,1.8563,1.8573,1.8651,1.8638,1.8648,1.8681,1.8694,1.8715,1.8713,1.8699,1.8707,1.867,1.8711,1.8647,1.8705,1.8656,1.8669,1.8663,1.8667,1.8671,1.8601,1.8715,1.8895,1.8914,1.8673,1.8671,1.8669,0,1.8689,1.8722,1.8773,1.8776,1.8762,1.8787,1.8782,1.8777,1.8789,1.88,1.8808,1.8823,1.8833,1.8846,1.8815,1.877,1.8879,1.8811,1.8871,1.8872,1.8898,1.8898,1.9086,1.8902,1.8902,1.8901,1.8901,0,1.8827,1.8878,1.8831,1.8863,1.8919,1.8876,1.8933,1.8922,1.8918,1.8949,1.8898,1.8927,1.8883,1.8908,1.8884,1.8938,1.8941,1.8933,1.8927,1.894,1.8942,1.895,1.8942,1.8906,1.8905,1.8904,1.8903,0,1.8979,1.8949,1.9002,1.8984,1.8981,1.9023,1.9009,1.9039,1.9019,1.9059,1.9065,1.9036,1.9064,1.9033,1.9059,1.9042,1.9116,1.9096,1.9117,1.9113,1.9176,1.9172,1.9378,1.9405,1.9201,1.9203,1.9204,0,1.907,1.9108,1.9094,1.9111,1.9109,1.9136,1.9149,1.9109,1.9124,1.9126,1.9157,1.918,1.9197,1.9245,1.9227,1.9247,1.9229,1.93,1.9231,1.9244,1.9234,1.9233,1.9239,1.9315,1.9317,1.9319,1.932,0,1.9236,1.922,1.9239,1.9255,1.9271,1.9282,1.9288,1.9305,1.9263,1.9283,1.9311,1.9325,1.9351,1.9377,1.9392,1.9388,1.9349,1.9342,1.9357,1.9373,1.9385,1.9383,1.9159,1.9338,1.9336,1.9335,1.9334,1.9333,1.9362,1.9394,1.9391,1.9415,1.9416,1.9424,1.9452,1.9437,1.9459,1.9478,1.9453,1.9489,1.9488,1.9504,1.9505,1.9533,1.9503,1.9525,1.9531,1.9538,1.9549,1.9378,1.9535,1.9535,1.9534,1.9534,1.9534,0,1.9529,1.9524,1.9546,1.9558,1.9578,1.9537,1.9543,1.9563,1.9595,1.9597,1.9615,1.9649,1.9674,1.9658,1.9679,1.9706,1.9689,1.9713,1.9712,1.9713,1.9573,1.9559,1.9727,1.9727,1.9727,1.9727,1.9727,1.9726,1.9618,1.9672,1.9655,1.9709,1.9704,1.9739,1.9746,1.9753,1.9755,1.9795,1.9816,1.9805,1.9801,1.9822,1.9843,1.9838,1.985,1.9882,1.9871,1.9741,1.9722,1.9704,1.9691,1.9884,1.9884,2.0009,2.001,2.0011]},{"header":{"parameterUnit":"m.s-1","parameterCategory":1,"la1":30.2991,"la2":30.254,"lo1":-89.0895,"lo2":-89.0444,"dy":0.0017,"dx":0.0017,"nx":28,"ny":28,"refTime":"2023-10-19T09:00:00:Z","depth":0,"parameterNumber":3,"parameterNumberName":"V-component_of_WINDS"},"data":[0,0,0,0,0,0,0,0,0,0,0,0,0,0,0,0,0,0,0,0,0,0,0,0,0,0,0,0,0,0,0,0,0,0,0,0,0,0,0,0,0,0,0,0,0,0,0,0,0,0,0,0,0,0,0,0,0,0,-2.6949,-2.6951,0,-2.708,-2.7081,-2.7083,-2.7097,-2.7096,-2.7095,-2.7093,-2.7225,-2.723,-2.7235,0,0,0,0,0,0,0,0,0,0,0,0,0,-2.6712,-2.6716,-2.6949,-2.6951,-2.6952,-2.708,-2.7081,-2.7083,-2.7097,-2.7096,-2.7094,-2.7093,-2.7224,-2.7229,-2.7235,0,0,0,0,0,0,0,0,0,0,0,0,0,-2.6826,-2.6717,-2.6949,-2.6975,-2.6978,-2.7079,-2.7081,-2.7084,-2.7098,-2.7096,-2.7094,-2.7092,-2.7222,-2.7229,-2.7236,-2.7319,0,0,-2.7258,-2.7261,0,0,0,0,0,0,0,0,-2.6819,-2.6834,-2.6969,-2.6973,-2.6977,-2.707,-2.7046,-2.7162,-2.7098,-2.7052,-2.7093,-2.7091,-2.7175,-2.7186,-2.7215,-2.7325,-2.7331,-2.7258,-2.7263,-2.7266,-2.7268,0,0,0,0,0,0,0,-2.6811,-2.6829,-2.7001,-2.6971,-2.6976,-2.698,-2.6994,-2.7068,-2.7123,-2.7056,-2.7058,-2.7073,-2.7177,-2.7208,-2.7218,-2.7333,-2.7258,-2.7264,-2.7269,-2.7271,-2.7519,-2.7522,0,0,0,0,0,0,-2.6799,-2.6822,-2.6997,-2.7005,-2.6892,-2.6986,-2.7001,-2.7042,-2.7122,-2.7133,-2.7075,-2.7073,-2.7197,-2.721,-2.7223,-2.7326,-2.7266,-2.7272,-2.7276,-2.7517,-2.752,-2.7522,0,0,0,0,0,0,-2.6793,-2.6814,-2.6991,-2.6914,-2.6937,-2.6992,-2.7038,-2.7046,-2.7077,-2.7136,-2.7146,-2.7096,-2.7196,-2.7213,-2.7295,-2.7331,-2.7275,-2.7282,-2.7514,-2.7518,-2.7521,-2.7533,0,0,0,0,0,0,-2.6787,-2.6812,-2.6844,-2.6914,-2.6941,-2.7062,-2.704,-2.705,-2.7089,-2.7089,-2.7159,-2.7169,-2.7195,-2.7285,-2.7302,-2.734,-2.7287,-2.7511,-2.7516,-2.752,-2.753,-2.7537,-2.7542,0,0,0,0,0,-2.6778,-2.6842,-2.6846,-2.6867,-2.6982,-2.7064,-2.7079,-2.7109,-2.7092,-2.7125,-2.7163,-2.7166,-2.7324,-2.7293,-2.7313,-2.7353,-2.7509,-2.7515,-2.752,-2.7527,-2.7535,-2.7542,0,0,0,0,0,0,-2.6773,-2.6851,-2.6857,-2.6945,-2.6998,-2.7066,-2.7108,-2.7117,-2.7175,-2.7172,-2.7206,-2.7222,-2.7303,-2.7336,-2.73,-2.7438,-2.7415,-2.7425,-2.7414,-2.7422,-2.7428,-2.7418,-2.7293,0,0,0,0,0,-2.6783,-2.6843,-2.6908,-2.6979,-2.7006,-2.7053,-2.7089,-2.7108,-2.7164,-2.7186,-2.723,-2.7284,-2.7346,-2.7386,-2.7446,-2.7535,-2.7551,-2.7572,-2.7579,-2.7583,-2.7591,-2.7642,-2.7652,-2.754,-2.754,-2.754,0,0,-2.6802,-2.6852,-2.6888,-2.698,-2.7023,-2.7084,-2.7071,-2.7136,-2.7183,-2.7196,-2.7277,-2.7312,-2.7374,-2.746,-2.7501,-2.749,-2.7626,-2.759,-2.7594,-2.7599,-2.7648,-2.7659,-2.7668,-2.7543,-2.7543,-2.7542,0,0,-2.6869,-2.6913,-2.6978,-2.7022,-2.7088,-2.7119,-2.7135,-2.7203,-2.7227,-2.7309,-2.732,-2.7376,-2.7481,-2.7525,-2.7562,-2.7648,-2.7653,-2.7666,-2.7699,-2.7748,-2.7757,-2.7765,-2.7796,-2.7807,-2.7674,-2.7674,-2.7674,0,-2.6885,-2.6979,-2.7011,-2.7076,-2.7117,-2.7133,-2.7199,-2.724,-2.7322,-2.7349,-2.7337,-2.7471,-2.7514,-2.7611,-2.7632,-2.7661,-2.768,-2.7658,-2.7753,-2.7761,-2.7769,-2.78,-2.7811,-2.7675,-2.7675,-2.7675,-2.7675,0,-2.6996,-2.706,-2.7105,-2.7185,-2.723,-2.7296,-2.7337,-2.738,-2.7395,-2.7427,-2.7511,-2.7564,-2.7635,-2.766,-2.7675,-2.776,-2.7752,-2.7746,-2.7723,-2.7781,-2.781,-2.7821,-2.7677,-2.7676,-2.7676,-2.7676,0,0,-2.7062,-2.716,-2.7176,-2.7213,-2.7288,-2.7338,-2.7405,-2.7476,-2.7511,-2.7568,-2.7625,-2.7715,-2.771,-2.7751,-2.7772,-2.7815,-2.788,-2.7804,-2.7806,-2.7816,-2.7978,-2.7982,-2.7995,-2.7885,-2.7887,-2.7889,-2.7973,0,-2.7138,-2.7258,-2.7289,-2.7391,-2.7451,-2.7468,-2.7527,-2.7579,-2.7611,-2.7667,-2.7703,-2.7766,-2.7755,-2.7781,-2.7824,-2.7863,-2.7913,-2.7857,-2.7938,-2.794,-2.7922,-2.801,-2.8014,-2.8091,-2.7985,-2.7987,-2.7988,0,-2.7243,-2.7302,-2.741,-2.7478,-2.7505,-2.7557,-2.7625,-2.7678,-2.7738,-2.7759,-2.7806,-2.7823,-2.7893,-2.7867,-2.7965,-2.7926,-2.7961,-2.7986,-2.7989,-2.7998,-2.7967,-2.8021,-2.8117,-2.8128,-2.8006,-2.8005,-2.8003,0,-2.7281,-2.7388,-2.7467,-2.7498,-2.7579,-2.7616,-2.7651,-2.7709,-2.775,-2.781,-2.7837,-2.7903,-2.794,-2.7991,-2.8026,-2.8003,-2.8121,-2.8097,-2.814,-2.8139,-2.8164,-2.8162,-2.8266,-2.8186,-2.8186,-2.8186,-2.8185,0,-2.7363,-2.7428,-2.7486,-2.7534,-2.7608,-2.7644,-2.7716,-2.7752,-2.7804,-2.786,-2.7878,-2.793,-2.7973,-2.8031,-2.8058,-2.8135,-2.8151,-2.817,-2.8177,-2.8169,-2.8166,-2.8192,-2.8187,-2.8189,-2.8188,-2.8188,-2.8187,0,-2.7417,-2.7459,-2.7546,-2.7616,-2.7636,-2.7687,-2.7747,-2.7795,-2.7829,-2.7899,-2.7918,-2.7971,-2.804,-2.808,-2.8166,-2.8185,-2.8271,-2.8275,-2.8251,-2.8254,-2.8294,-2.829,-2.8419,-2.8438,-2.8345,-2.8346,-2.8346,0,-2.7467,-2.7518,-2.7594,-2.7633,-2.767,-2.7732,-2.7775,-2.7812,-2.7855,-2.7928,-2.7967,-2.8038,-2.8097,-2.8206,-2.8252,-2.8319,-2.8325,-2.8366,-2.8335,-2.8326,-2.8326,-2.8323,-2.8328,-2.8371,-2.8371,-2.8372,-2.8373,0,-2.755,-2.7568,-2.7629,-2.7697,-2.7748,-2.7803,-2.7858,-2.7889,-2.7936,-2.7984,-2.8055,-2.8101,-2.819,-2.826,-2.8331,-2.8368,-2.8378,-2.8382,-2.8396,-2.8388,-2.8372,-2.8382,-2.8265,-2.8379,-2.8378,-2.8378,-2.8377,-2.8377,-2.7604,-2.7651,-2.7712,-2.7779,-2.7825,-2.7876,-2.7925,-2.7965,-2.8026,-2.8102,-2.8121,-2.8196,-2.8256,-2.8353,-2.8391,-2.8451,-2.8444,-2.8463,-2.8468,-2.8472,-2.8474,-2.8363,-2.8464,-2.8464,-2.8463,-2.8463,-2.8463,0,-2.7689,-2.7729,-2.7791,-2.7868,-2.7921,-2.7927,-2.7989,-2.8033,-2.8099,-2.8154,-2.8212,-2.8295,-2.8363,-2.8415,-2.8485,-2.8523,-2.853,-2.854,-2.8538,-2.8546,-2.8476,-2.8457,-2.8534,-2.8534,-2.8534,-2.8534,-2.8534,-2.8534,-2.7739,-2.7818,-2.7844,-2.7946,-2.7987,-2.8061,-2.8096,-2.8144,-2.8188,-2.828,-2.8337,-2.8371,-2.8425,-2.85,-2.8563,-2.8577,-2.8602,-2.8612,-2.8626,-2.8559,-2.8551,-2.8544,-2.8527,-2.8617,-2.8617,-2.8692,-2.8693,-2.8693]}]]